This is the latest recevied weather packets stored in our database for station/object EA1AHA-13. If no packets are shown the sender has not sent any weather packets the latest 10 day(s).
| Time | Temp. | Humidity | Pressure | Rain* | Wind** | Luminosity | Snow |
|---|---|---|---|---|---|---|---|
| 1778095277 | 13.89° C | 87% | 1012.5 hPa | 0.25 mm | - | - | - |
| 1778094701 | 13.89° C | 87% | 1012.3 hPa | 0.25 mm | - | - | - |
| 1778094077 | 13.33° C | 87% | 1012.5 hPa | 0.25 mm | - | - | - |
| 1778093501 | 13.89° C | 86% | 1012.3 hPa | 0 mm | - | - | - |
| 1778092877 | 14.44° C | 84% | 1012.1 hPa | 0 mm | - | - | - |
| 1778092301 | 13.89° C | 82% | 1012.2 hPa | 0 mm | - | - | - |
| 1778091677 | 14.44° C | 81% | 1012.2 hPa | 0 mm | - | - | - |
| 1778091101 | 14.44° C | 81% | 1012.5 hPa | 0 mm | - | - | - |
| 1778090477 | 14.44° C | 81% | 1012.3 hPa | 0 mm | - | - | - |
| 1778089902 | 14.44° C | 80% | 1012.2 hPa | 0 mm | - | - | - |
| 1778089277 | 15° C | 80% | 1012.3 hPa | 0 mm | - | - | - |
| 1778088702 | 15° C | 80% | 1012.4 hPa | 0 mm | - | - | - |
| 1778088078 | 15° C | 79% | 1012.4 hPa | 0 mm | - | - | - |
| 1778087500 | 15° C | 79% | 1012.3 hPa | 0 mm | - | - | - |
| 1778086877 | 14.44° C | 79% | 1012.5 hPa | 0 mm | - | - | - |
| 1778086301 | 15° C | 76% | 1012.3 hPa | 0 mm | - | - | - |
| 1778085677 | 15° C | 75% | 1012.4 hPa | 0 mm | - | - | - |
| 1778085101 | 15.56° C | 76% | 1012.1 hPa | 0 mm | - | - | - |
| 1778084477 | 15° C | 77% | 1012.4 hPa | 0 mm | - | - | - |
| 1778083900 | 15° C | 75% | 1012.4 hPa | 0 mm | - | - | - |
| 1778083277 | 15.56° C | 74% | 1012 hPa | 0 mm | - | - | - |
| 1778082701 | 15° C | 74% | 1012.3 hPa | 0 mm | - | - | - |
| 1778082078 | 15.56° C | 71% | 1012.3 hPa | 0 mm | - | - | - |
| 1778081500 | 15.56° C | 73% | 1012.5 hPa | 0 mm | - | - | - |
| 1778080878 | 16.67° C | 68% | 1012.6 hPa | 0 mm | - | - | - |
* Rain latest hour (hover to see other rain measurements)
** Current wind speed in m/s (hover to see current wind gust speed)